TimeCST,TemperatureF,Dew PointF,Humidity,Sea Level PressureIn,VisibilityMPH,Wind Direction,Wind SpeedMPH,Gust SpeedMPH,PrecipitationIn,Events,Conditions,WindDirDegrees,DateUTC
12:53 AM,50.0,26.1,39,30.24,10.0,NW,4.6,-,N/A,,Clear,310,2012-12-12 06:53:00
1:53 AM,48.9,28.0,44,30.22,10.0,Calm,Calm,-,N/A,,Clear,0,2012-12-12 07:53:00
2:53 AM,46.0,26.1,46,30.23,10.0,NNW,4.6,-,N/A,,Clear,330,2012-12-12 08:53:00
3:53 AM,46.0,26.1,46,30.24,10.0,Calm,Calm,-,N/A,,Clear,0,2012-12-12 09:53:00
4:53 AM,45.0,25.0,46,30.23,10.0,NNW,4.6,-,N/A,,Clear,330,2012-12-12 10:53:00
5:53 AM,44.1,26.1,49,30.23,10.0,NNW,5.8,-,N/A,,Clear,340,2012-12-12 11:53:00
6:53 AM,44.1,26.1,49,30.25,10.0,NNW,3.5,-,N/A,,Clear,330,2012-12-12 12:53:00
7:53 AM,44.1,28.9,55,30.28,10.0,NW,3.5,-,N/A,,Clear,310,2012-12-12 13:53:00
8:53 AM,50.0,27.0,41,30.30,10.0,NNW,4.6,-,N/A,,Clear,330,2012-12-12 14:53:00
9:53 AM,55.9,27.0,33,30.32,10.0,North,4.6,-,N/A,,Clear,350,2012-12-12 15:53:00
10:53 AM,60.1,32.0,35,30.31,10.0,North,6.9,-,N/A,,Clear,10,2012-12-12 16:53:00
11:53 AM,63.0,32.0,31,30.30,10.0,NNW,4.6,-,N/A,,Clear,340,2012-12-12 17:53:00
12:53 PM,66.0,30.9,27,30.25,10.0,Variable,6.9,-,N/A,,Clear,0,2012-12-12 18:53:00
1:53 PM,66.9,32.0,27,30.22,10.0,ENE,9.2,-,N/A,,Clear,60,2012-12-12 19:53:00
2:53 PM,68.0,34.0,28,30.22,10.0,East,9.2,-,N/A,,Clear,80,2012-12-12 20:53:00
3:53 PM,68.0,37.0,32,30.21,10.0,ENE,9.2,-,N/A,,Clear,60,2012-12-12 21:53:00
4:53 PM,66.9,37.9,34,30.21,10.0,East,12.7,-,N/A,,Clear,90,2012-12-12 22:53:00
5:53 PM,63.0,41.0,45,30.22,10.0,East,8.1,-,N/A,,Clear,90,2012-12-12 23:53:00
6:53 PM,60.1,45.0,57,30.24,10.0,East,8.1,-,N/A,,Clear,80,2012-12-13 00:53:00
7:53 PM,60.1,46.0,60,30.24,10.0,ENE,8.1,-,N/A,,Clear,70,2012-12-13 01:53:00
8:53 PM,59.0,46.9,64,30.25,10.0,ENE,8.1,-,N/A,,Clear,60,2012-12-13 02:53:00
9:53 PM,57.0,46.9,69,30.25,10.0,NE,4.6,-,N/A,,Clear,50,2012-12-13 03:53:00
10:53 PM,55.9,46.0,69,30.24,10.0,NE,3.5,-,N/A,,Clear,50,2012-12-13 04:53:00
11:53 PM,55.0,46.0,72,30.23,10.0,NNE,3.5,-,N/A,,Clear,20,2012-12-13 05:53:00